Vorticity
-5 1 4 14 -4 12 13 23 21 31 -7 -7 -2 29 44 -3 0 -2 3 5 3 3 4 5 3 -2 14 3 5 5 5 5 5 2 3 5 3 6 7 2 3 7 10
-8 7 3 1 2 2 5 -5 3 1 5 27 -1 3 11 19 25 10 4 -1 -2 -2 4 4 2 7 -1 4 20 -2 5 5 5 2 2 4 4 2 7 7 4 -2 14
6 2 4 7 5 1 7 5 -2 4 8 -8 29 -6 3 12 8 37 15 11 9 7 -0 1 3 3 3 8 -46 49 1 4 6 5 2 3 5 3 5 6 8 10 14
11 8 8 4 6 7 7 7 10 4 8 4 3 -8 -12 7 -1 0 7 31 18 5 6 13 2 3 5 2 -7 -10 18 4 3 8 1 3 4 5 2 6 6 8 11
4 3 2 2 2 3 3 2 4 6 6 7 9 11 1 3 2 6 -3 2 2 0 28 -3 7 11 5 0 2 6 -1 19 9 4 5 1 3 5 3 4 6 8 12
3 3 3 4 3 3 3 3 3 3 4 4 3 2 4 6 4 4 5 -0 5 4 2 6 10 12 7 2 4 -1 -2 0 30 -0 8 2 2 4 4 2 5 7 11
5 6 5 5 4 4 4 4 4 4 3 3 4 5 4 4 3 4 7 9 2 1 7 3 3 2 7 13 11 -1 4 8 7 6 3 7 3 2 5 4 2 6 8
4 4 4 3 3 5 3 3 2 3 3 2 2 2 2 4 5 5 4 3 4 5 4 6 2 4 2 5 8 14 7 2 8 21 0 5 6 3 2 3 5 3 8
5 5 4 4 5 4 5 6 7 7 6 6 6 5 5 4 4 4 3 5 4 3 3 3 4 6 3 4 2 -0 11 10 1 6 10 5 6 6 3 2 5 4 6
4 5 6 7 6 6 6 5 5 4 4 3 3 5 6 7 7 7 7 6 4 4 4 4 3 3 3 6 2 4 5 2 14 11 9 3 5 5 5 4 3 8 5
3 3 2 2 1 0 1 1 1 2 4 4 4 4 5 5 5 5 4 4 5 8 6 4 3 4 3 2 4 3 -1 -1 0 7 13 10 1 4 6 7 3 6 6
3 4 5 5 4 4 4 4 3 1 0 1 1 3 3 4 4 5 6 5 4 3 4 7 9 7 3 3 4 3 4 4 6 0 1 16 11 6 1 5 9 2 7
4 5 6 7 6 6 6 7 7 6 5 4 3 3 1 2 3 3 3 3 5 5 4 4 4 3 3 7 8 3 3 3 2 6 6 4 19 6 5 2 4 7 7
7 7 8 7 6 6 6 6 6 7 7 8 7 7 7 7 5 2 3 3 4 4 7 6 4 2 3 4 3 4 8 4 2 2 2 8 7 13 8 4 3 4 4
4 6 6 5 5 5 4 5 5 5 5 5 4 4 5 5 8 9 8 6 5 4 2 4 5 6 6 4 3 3 3 5 9 3 2 3 6 8 16 5 5 3 6
6 6 5 6 4 4 6 6 5 5 6 5 5 4 5 5 6 8 7 7 8 8 8 6 2 2 3 6 6 4 4 4 4 7 6 2 4 6 10 12 7 6 3
7 8 9 7 6 7 6 7 7 7 7 7 8 9 9 10 10 8 5 5 6 4 5 6 6 7 6 4 3 5 6 4 4 5 6 8 3 3 6 13 13 8 7
8 9 7 7 6 8 7 5 7 7 7 7 7 6 8 5 5 4 5 6 6 7 8 8 9 10 9 7 4 6 4 5 6 4 4 4 9 3 3 5 4 15 8
5 6 7 8 6 4 5 5 5 5 6 8 8 7 5 5 5 6 7 6 4 4 5 7 6 7 10 12 13 8 8 4 5 7 4 5 4 9 4 5 5 3 11
8 7 6 5 6 7 4 2 5 6 7 7 4 2 6 7 5 5 6 5 6 5 4 -0 3 7 9 13 17 20 18 11 6 0 9 3 5 5 8 4 6 6 7
8 7 4 6 5 6 5 6 9 9 8 7 7 9 9 11 15 12 3 -1 -1 -1 0 3 1 -6 3 5 6 10 19 19 14 8 0 7 2 6 6 7 2 5 6
4 9 9 6 5 6 8 10 9 8 7 7 5 7 10 3 -2 0 7 10 12 14 13 12 14 12 12 8 9 6 8 12 16 19 3 2 6 3 5 5 5 -0 4
8 6 7 8 8 8 10 8 6 8 9 7 7 6 4 7 9 13 11 13 10 9 9 9 9 8 7 7 9 12 10 4 13 11 21 5 7 7 5 6 6 6 1
9 10 8 7 9 7 5 6 8 8 5 6 6 7 7 8 11 13 8 5 7 7 9 13 13 11 11 11 11 13 14 12 8 9 14 13 8 6 8 4 8 7 5
11 9 8 6 7 6 8 9 7 7 6 8 6 6 7 7 10 6 8 9 12 12 10 10 21 34 43 43 30 36 25 13 12 16 11 13 13 4 8 11 4 8 6
11 7 5 7 6 7 8 8 8 8 6 5 7 6 9 10 9 8 11 9 12 33 53 59 54 47 44 45 48 47 51 58 45 18 12 11 14 12 2 12 9 5 8
Height
5804 5806 5807 5808 5809 5808 5809 5809 5807 5810 5809 5810 5811 5814 5815 5816 5816 5816 5817 5820 5823 5824 5824 5825 5824 5826 5826 5828 5830 5831 5833 5834 5835 5837 5837 5838 5839 5840 5843 5844 5845 5847 5848
5803 5804 5804 5804 5806 5807 5809 5808 5807 5808 5807 5809 5810 5812 5812 5813 5814 5814 5814 5816 5817 5819 5821 5823 5822 5821 5822 5819 5826 5827 5829 5831 5832 5834 5836 5837 5839 5839 5841 5843 5844 5846 5848
5802 5802 5803 5802 5803 5805 5806 5806 5807 5809 5807 5807 5808 5809 5810 5811 5810 5813 5814 5815 5816 5817 5817 5818 5819 5821 5819 5818 5820 5822 5825 5828 5829 5831 5833 5835 5836 5838 5839 5842 5844 5845 5846
5801 5800 5800 5801 5802 5803 5803 5804 5804 5805 5806 5805 5806 5807 5808 5809 5809 5810 5812 5813 5814 5815 5815 5816 5816 5818 5818 5818 5818 5820 5822 5824 5826 5828 5829 5832 5834 5836 5837 5839 5842 5843 5845
5799 5799 5798 5798 5800 5800 5800 5802 5801 5802 5803 5804 5804 5805 5806 5807 5808 5809 5810 5811 5811 5812 5813 5812 5813 5814 5815 5815 5816 5817 5818 5821 5822 5825 5826 5828 5831 5834 5835 5836 5839 5841 5843
5796 5795 5795 5795 5794 5796 5797 5797 5797 5798 5798 5800 5802 5801 5804 5804 5805 5804 5807 5807 5809 5809 5810 5809 5810 5811 5812 5813 5813 5814 5814 5817 5819 5820 5822 5825 5827 5831 5832 5835 5836 5838 5840
5791 5791 5791 5791 5791 5791 5791 5792 5793 5795 5796 5796 5796 5799 5799 5800 5801 5801 5802 5803 5805 5805 5806 5806 5806 5807 5808 5809 5810 5812 5812 5813 5815 5816 5819 5822 5823 5825 5829 5831 5833 5835 5837
5787 5786 5786 5785 5784 5783 5785 5787 5789 5789 5790 5791 5792 5793 5794 5795 5795 5797 5798 5797 5799 5801 5801 5802 5802 5803 5804 5805 5805 5807 5808 5810 5812 5814 5816 5818 5821 5822 5823 5826 5829 5832 5834
5782 5782 5781 5781 5780 5779 5780 5781 5781 5782 5783 5783 5784 5786 5785 5786 5788 5789 5791 5792 5794 5795 5795 5796 5796 5798 5798 5799 5801 5802 5803 5805 5807 5810 5812 5814 5816 5818 5820 5822 5825 5828 5830
5777 5777 5776 5775 5775 5776 5776 5775 5774 5775 5774 5774 5776 5778 5780 5780 5780 5781 5782 5784 5786 5787 5788 5790 5790 5791 5792 5794 5796 5797 5799 5800 5802 5804 5806 5809 5811 5813 5815 5818 5820 5823 5825
5773 5772 5772 5772 5772 5770 5769 5768 5767 5766 5767 5769 5770 5770 5771 5772 5774 5773 5774 5775 5776 5778 5780 5781 5782 5784 5785 5786 5788 5791 5791 5794 5796 5799 5800 5802 5804 5807 5809 5812 5816 5818 5820
5767 5766 5765 5764 5763 5763 5762 5761 5760 5759 5758 5758 5758 5759 5760 5762 5763 5764 5766 5767 5767 5768 5770 5771 5772 5774 5776 5778 5780 5782 5784 5787 5789 5792 5794 5795 5796 5800 5803 5806 5809 5812 5816
5759 5758 5757 5757 5756 5755 5754 5753 5752 5752 5752 5751 5750 5749 5749 5749 5750 5752 5753 5755 5757 5758 5760 5761 5762 5763 5765 5767 5770 5773 5775 5778 5781 5783 5786 5789 5791 5792 5795 5799 5802 5805 5809
5752 5751 5750 5748 5747 5746 5745 5744 5743 5742 5741 5741 5741 5740 5739 5738 5739 5739 5740 5742 5744 5746 5747 5748 5750 5752 5755 5757 5759 5761 5764 5769 5772 5775 5778 5780 5783 5785 5787 5790 5793 5798 5800
5744 5742 5741 5739 5738 5736 5735 5734 5732 5731 5730 5729 5728 5728 5728 5727 5727 5728 5728 5729 5730 5732 5733 5735 5736 5738 5741 5744 5746 5749 5752 5755 5760 5765 5768 5770 5773 5775 5778 5781 5784 5788 5793
5733 5731 5729 5727 5726 5724 5722 5721 5720 5719 5718 5717 5716 5715 5714 5713 5713 5713 5713 5714 5715 5717 5718 5719 5720 5722 5724 5728 5732 5734 5737 5742 5746 5751 5756 5760 5762 5764 5767 5771 5774 5779 5782
5720 5719 5718 5716 5713 5712 5711 5709 5708 5706 5704 5703 5702 5700 5700 5699 5699 5697 5696 5697 5699 5699 5701 5703 5705 5707 5708 5710 5714 5717 5722 5726 5731 5736 5742 5746 5751 5753 5756 5759 5763 5768 5772
5709 5707 5706 5704 5702 5699 5697 5695 5693 5691 5689 5687 5684 5682 5682 5681 5681 5680 5679 5680 5680 5681 5682 5683 5685 5688 5691 5693 5696 5698 5702 5709 5715 5719 5725 5730 5736 5739 5743 5746 5750 5756 5760
5699 5696 5694 5691 5689 5687 5684 5681 5678 5676 5674 5672 5670 5668 5665 5664 5663 5662 5661 5660 5660 5658 5658 5659 5660 5663 5667 5671 5676 5680 5684 5689 5694 5701 5706 5712 5719 5724 5729 5732 5736 5742 5747
5686 5683 5681 5678 5675 5673 5670 5667 5664 5661 5658 5655 5652 5649 5647 5645 5642 5639 5637 5635 5635 5635 5634 5633 5634 5635 5638 5642 5647 5654 5663 5669 5672 5678 5686 5691 5698 5706 5711 5717 5721 5727 5734
5673 5670 5667 5663 5661 5659 5657 5654 5650 5646 5643 5639 5635 5631 5627 5623 5620 5616 5615 5612 5610 5607 5606 5604 5605 5609 5612 5613 5617 5624 5634 5640 5647 5654 5661 5670 5676 5683 5691 5699 5705 5712 5719
5660 5656 5653 5650 5647 5644 5641 5637 5633 5630 5625 5622 5617 5612 5607 5604 5601 5597 5593 5590 5586 5583 5579 5575 5574 5573 5574 5579 5586 5593 5602 5612 5614 5629 5635 5641 5649 5656 5669 5679 5688 5694 5702
5646 5642 5639 5635 5631 5628 5625 5620 5616 5612 5607 5603 5598 5592 5587 5582 5578 5574 5569 5563 5559 5554 5550 5544 5539 5536 5538 5542 5545 5554 5567 5576 5586 5595 5608 5613 5621 5637 5648 5659 5669 5678 5685
5633 5628 5623 5619 5616 5611 5607 5603 5598 5593 5588 5582 5577 5572 5566 5558 5552 5546 5540 5533 5527 5522 5516 5511 5505 5502 5502 5503 5504 5510 5522 5537 5548 5567 5574 5585 5592 5604 5622 5635 5647 5659 5666
5617 5612 5606 5602 5598 5594 5589 5583 5579 5574 5568 5562 5556 5550 5543 5535 5526 5516 5508 5502 5495 5488 5481 5474 5469 5467 5465 5468 5467 5467 5479 5493 5508 5525 5545 5551 5564 5579 5596 5610 5624 5636 5646
5600 5595 5590 5586 5581 5577 5571 5564 5559 5554 5546 5540 5534 5527 5520 5511 5500 5489 5479 5470 5460 5451 5443 5438 5435 5434 5434 5435 5437 5439 5442 5451 5466 5482 5503 5522 5530 5549 5565 5582 5597 5611 5622